Regional Weather Roundup
Issued by NWS

Home | Current Version | Previous Version | Text Only | Print | Product List | Glossary On
Versions: 1 2 3 4 5 6 7 8 9 10 11 12 13 14 15 16 17 18 19 20 21 22 23 24 25 26 27 28 29 30 31 32 33 34 35 36 37 38 39 40 41 42 43 44 45 46 47 48 49 50
000
ASCA44 KEWX 030520
RWRMX

LATIN AMERICA AND CARIBBEAN REGIONAL WEATHER ROUNDUP
NATIONAL WEATHER SERVICE AUSTIN/SAN ANTONIO TX
1100 PM CST FRI DEC 02 2016

NOTE: "FAIR" INDICATED FEW OR NO CLOUDS BELOW 12,000 FEET WITH NO
SIGNIFICANT WEATHER AND/OR OBSTRUCTIONS TO VISIBILITY.

BAJA CALIFORNIA

CITY           SKY/WX    TMP DP  RH WIND       PRES   REMARKS
LA PAZ         PTCLDY    64  48  55 SW5       29.93S
MEXICALI       CLEAR     52  18  25 NW16      30.02R
S.J. DEL CABO  CLOUDY    70  54  56 SW6       29.87S
TIJUANA        CLEAR     55  23  28 E6        30.04R

NORTHWESTERN MEXICO

CITY           SKY/WX    TMP DP  RH WIND       PRES   REMARKS
CULIACAN       CLOUDY    72  54  53 CALM      29.84F
HERMOSILLO     PTCLDY    55  46  71 CALM      29.86F
LOS MOCHIS     MOCLDY    66  55  68 W6        29.85F

NORTHEASTERN MEXICO

CITY           SKY/WX    TMP DP  RH WIND       PRES   REMARKS
MONCLOVA         N/A    N/A N/A N/A MISG        N/A
MONTERREY      CLOUDY    68  63  83 CALM      29.86F
REYNOSA          N/A    N/A N/A N/A MISG        N/A
SALTILLO       MOCLDY    54  48  82 CALM      30.03F
CD. VICTORIA     N/A    N/A N/A N/A MISG        N/A

WESTERN MEXICO

CITY           SKY/WX    TMP DP  RH WIND       PRES   REMARKS
AGUASCALIENTES PTCLDY    55  46  71 S6        30.22R
COLIMA           N/A    N/A N/A N/A MISG        N/A
DEL BAJIO      MOCLDY    59  48  67 CALM      30.26S
GUADALAJARA    CLEAR     63  50  63 CALM      30.16R
MAZATLAN       MOCLDY    73  66  78 CALM      29.87F
P. VALLARTA    PTCLDY    73  72  94 N5        29.87S
URUAPAN          N/A    N/A N/A N/A MISG        N/A
ZACATECAS      CLEAR     54  46  76 W8        30.21R

CENTRAL MEXICO

CITY           SKY/WX    TMP DP  RH WIND       PRES   REMARKS
CUERNAVACA       N/A    N/A N/A N/A MISG        N/A
MEXICO CITY    PTCLDY    61  46  59 W2        30.29S
MORELIA        PTCLDY    55  52  88 CALM      30.22S
POZA RICA        N/A    N/A N/A N/A MISG        N/A
QUERETARO      PTCLDY    55  45  67 NW8       30.26S
S. LUIS POTOSI MOCLDY    64  43  45 SW5       30.15F
TAMPICO        PTCLDY    77  72  83 E12       29.89S
TOLUCA         PTCLDY    46  45  93 SW5       30.38S WCI  44

SOUTHERN MEXICO

CITY           SKY/WX    TMP DP  RH WIND       PRES   REMARKS
ACAPULCO       MOCLDY    79  75  89 E3        29.89S
B. DE HUATULCO CLEAR     75  59  57 CALM      29.97S
P. ESCONDIDO     N/A    N/A N/A N/A MISG        N/A
VERACRUZ       CLEAR     75  72  88 CALM      29.91F

YUCATAN PENINSULA

CITY           SKY/WX    TMP DP  RH WIND       PRES   REMARKS
CAMPECHE         N/A    N/A N/A N/A MISG        N/A
CANCUN         PTCLDY    73  73 100 CALM      29.99F
CHETUMAL       CLEAR     77  73  88 CALM      29.96F
CD. DEL CARMEN   N/A    N/A N/A N/A MISG        N/A
COZUMEL        PTCLDY    72  70  94 CALM      29.98S
MERIDA         CLEAR     75  70  83 E6        29.98F
MINATITLAN       N/A    N/A N/A N/A MISG        N/A
TAPACHULA      PTCLDY    77  73  88 CALM      29.90S
TUX. GUTIERREZ CLEAR     70  66  88 SW5       29.97R
VILLAHERMOSA   PTCLDY    77  75  94 NE8       29.92S

CENTRAL AMERICA

CITY           SKY/WX    TMP DP  RH WIND       PRES   REMARKS
MANAGUA        PTCLDY    75  70  83 E5        29.86S

CARIBBEAN

CITY           SKY/WX    TMP DP  RH WIND       PRES   REMARKS
CURACAO        PTCLDY    82  75  78 E14       29.89S
KINGSTON       PTCLDY    82  72  69 N7        29.89F
NASSAU         PTCLDY    77  72  83 VRB3      30.05F
SAN JUAN       PTCLDY    79  73  83 CALM      29.98F
SANTO DOMINGO  PTCLDY    75  73  94 CALM      29.94S
ST. CROIX      PTCLDY    75  73  94 N6        29.98
ST. MAARTEN    PTCLDY    81  75  83 SE12      29.97S
ST. THOMAS     CLEAR     81  75  83 E6        29.97

$$




USA.gov is the U.S. government's official web portal to all federal, state and local government web resources and services.